Location: Baix
(44.7118°N, 4.7648°E)
Time: 03:02:46
(UTC+00:00)

NOSS 2-3 (E) - Pass Details

Date: 07 August 2020
Orbit: 572 x 1639 km, 63.4° (Epoch: 21 September)

Event Time Altitude Azimuth Distance (km) Brightness Sun altitude
Exits shadow 03:58:05 - 241° (WSW) 2,073 5.5 -6.5°
Reaches altitude 10° 03:58:27 10° 243° (WSW) 1,932 5.4 -6.5°
Maximum altitude 04:02:32 44° 317° (NW) 912 4.3 -5.9°
Drops below altitude 10° 04:07:24 10° 29° (NNE) 2,299 7.5 -5.1°
Sets 04:10:12 0° 36° (NE) 3,390 8.7 -4.7°
